QPF
0.00 0.00 0.01 0.03 0.04 0.04 0.04 0.03 0.02 0.01 0.01 0.01 0.02 0.01 0.02 0.02 0.03 0.02 0.02 0.02 0.03 0.04 0.05 0.07 0.05 0.05 0.07 0.05 0.03 0.03 0.04 0.06 0.07 0.05 0.04 0.02 0.02 0.03 0.03 0.03 0.03 0.04 0.06
0.00 0.00 0.00 0.01 0.02 0.03 0.03 0.02 0.01 0.01 0.01 0.01 0.01 0.02 0.03 0.02 0.02 0.04 0.04 0.02 0.02 0.03 0.03 0.05 0.04 0.04 0.06 0.06 0.07 0.06 0.05 0.06 0.06 0.05 0.04 0.04 0.04 0.03 0.03 0.04 0.04 0.05 0.06
0.00 0.00 0.00 0.00 0.01 0.01 0.02 0.01 0.00 0.00 0.01 0.01 0.02 0.02 0.02 0.03 0.08 0.14 0.10 0.05 0.03 0.03 0.03 0.04 0.04 0.05 0.06 0.06 0.06 0.06 0.06 0.06 0.05 0.05 0.04 0.05 0.08 0.04 0.04 0.04 0.04 0.06 0.07
0.00 0.00 0.00 0.00 0.00 0.00 0.01 0.01 0.01 0.01 0.01 0.01 0.02 0.02 0.03 0.09 0.21 0.21 0.12 0.05 0.04 0.03 0.03 0.04 0.05 0.06 0.06 0.06 0.04 0.05 0.04 0.03 0.03 0.02 0.03 0.06 0.14 0.09 0.06 0.06 0.06 0.07 0.06
0.00 0.00 0.00 0.00 0.00 0.00 0.01 0.01 0.01 0.02 0.01 0.01 0.01 0.02 0.03 0.11 0.18 0.15 0.07 0.04 0.04 0.04 0.03 0.03 0.03 0.04 0.06 0.08 0.05 0.05 0.05 0.04 0.04 0.04 0.03 0.03 0.07 0.09 0.09 0.08 0.08 0.06 0.05
0.00 0.00 0.00 0.00 0.00 0.01 0.01 0.01 0.02 0.02 0.01 0.02 0.02 0.01 0.02 0.04 0.06 0.05 0.04 0.05 0.05 0.04 0.05 0.05 0.04 0.02 0.04 0.04 0.04 0.04 0.05 0.05 0.04 0.04 0.04 0.03 0.05 0.06 0.06 0.06 0.07 0.07 0.06
0.00 0.00 0.01 0.01 0.01 0.01 0.01 0.02 0.02 0.02 0.02 0.01 0.02 0.02 0.03 0.03 0.02 0.03 0.04 0.04 0.04 0.04 0.03 0.05 0.07 0.06 0.05 0.03 0.03 0.03 0.03 0.04 0.04 0.04 0.05 0.05 0.08 0.09 0.09 0.07 0.06 0.07 0.08
0.00 0.00 0.00 0.01 0.01 0.02 0.02 0.02 0.03 0.02 0.02 0.01 0.03 0.04 0.05 0.05 0.05 0.05 0.04 0.04 0.03 0.03 0.05 0.11 0.13 0.11 0.08 0.06 0.05 0.02 0.02 0.05 0.07 0.06 0.06 0.07 0.10 0.12 0.10 0.06 0.04 0.04 0.04
0.00 0.00 0.00 0.00 0.01 0.01 0.01 0.01 0.02 0.02 0.01 0.01 0.02 0.03 0.05 0.06 0.07 0.08 0.05 0.03 0.02 0.02 0.06 0.13 0.14 0.09 0.06 0.05 0.03 0.02 0.03 0.05 0.07 0.06 0.05 0.06 0.09 0.13 0.14 0.12 0.07 0.05 0.03
0.01 0.00 0.00 0.00 0.01 0.02 0.01 0.01 0.01 0.01 0.01 0.01 0.01 0.01 0.02 0.03 0.06 0.07 0.05 0.02 0.01 0.01 0.05 0.11 0.13 0.07 0.04 0.04 0.03 0.01 0.01 0.01 0.02 0.02 0.03 0.05 0.08 0.09 0.11 0.09 0.07 0.05 0.04
0.01 0.01 0.00 0.00 0.00 0.02 0.01 0.01 0.00 0.01 0.01 0.02 0.02 0.02 0.02 0.03 0.04 0.03 0.04 0.03 0.01 0.01 0.03 0.08 0.11 0.07 0.03 0.04 0.04 0.03 0.02 0.01 0.01 0.02 0.03 0.04 0.07 0.07 0.08 0.07 0.06 0.05 0.06
0.01 0.01 0.01 0.01 0.01 0.01 0.01 0.01 0.00 0.00 0.01 0.01 0.02 0.02 0.03 0.05 0.05 0.03 0.02 0.02 0.01 0.01 0.01 0.04 0.08 0.09 0.05 0.03 0.03 0.03 0.02 0.02 0.02 0.02 0.03 0.03 0.05 0.06 0.07 0.07 0.08 0.08 0.08
0.01 0.01 0.01 0.01 0.01 0.01 0.01 0.01 0.01 0.01 0.01 0.01 0.01 0.01 0.02 0.03 0.03 0.03 0.02 0.01 0.01 0.01 0.01 0.02 0.05 0.10 0.10 0.07 0.04 0.02 0.02 0.02 0.02 0.01 0.01 0.01 0.02 0.03 0.05 0.06 0.08 0.10 0.11
0.01 0.00 0.00 0.00 0.00 0.00 0.00 0.00 0.01 0.01 0.01 0.00 0.00 0.00 0.01 0.01 0.01 0.02 0.02 0.01 0.01 0.02 0.02 0.01 0.02 0.05 0.08 0.08 0.06 0.03 0.02 0.02 0.01 0.01 0.01 0.01 0.01 0.01 0.02 0.03 0.03 0.04 0.05
0.01 0.01 0.00 0.00 0.00 0.00 0.00 0.00 0.00 0.00 0.01 0.00 0.00 0.01 0.01 0.01 0.01 0.01 0.01 0.01 0.02 0.02 0.01 0.02 0.01 0.00 0.01 0.02 0.02 0.02 0.02 0.01 0.01 0.01 0.01 0.00 0.00 0.00 0.01 0.01 0.02 0.03 0.03
0.01 0.01 0.01 0.00 0.00 0.00 0.00 0.00 0.00 0.01 0.01 0.00 0.00 0.01 0.01 0.01 0.01 0.01 0.00 0.01 0.01 0.01 0.01 0.01 0.00 0.00 0.00 0.00 0.00 0.00 0.00 0.00 0.00 0.00 0.00 0.00 0.00 0.00 0.00 0.00 0.00 0.01 0.02
0.02 0.02 0.01 0.01 0.01 0.01 0.01 0.01 0.00 0.01 0.01 0.01 0.01 0.01 0.01 0.01 0.01 0.01 0.01 0.01 0.00 0.00 0.01 0.00 0.00 0.00 0.00 0.00 0.00 0.00 0.00 0.00 0.00 0.00 0.01 0.00 0.00 0.00 0.00 0.00 0.00 0.00 0.00
0.02 0.01 0.00 0.00 0.00 0.00 0.01 0.01 0.01 0.01 0.01 0.01 0.01 0.01 0.01 0.01 0.01 0.01 0.00 0.01 0.00 0.00 0.01 0.01 0.00 0.00 0.00 0.00 0.00 0.00 0.00 0.00 0.00 0.01 0.01 0.00 0.00 0.00 0.00 0.00 0.00 0.00 0.00
0.01 0.01 0.00 0.00 0.00 0.00 0.00 0.01 0.01 0.01 0.01 0.01 0.01 0.01 0.01 0.01 0.01 0.01 0.01 0.00 0.00 0.00 0.00 0.01 0.01 0.01 0.00 0.00 0.00 0.00 0.00 0.00 0.00 0.00 0.00 0.00 0.00 0.00 0.00 0.00 0.00 0.00 0.00
0.02 0.01 0.01 0.00 0.00 0.00 0.01 0.01 0.01 0.01 0.01 0.02 0.02 0.01 0.01 0.01 0.00 0.01 0.01 0.01 0.01 0.01 0.01 0.01 0.01 0.01 0.01 0.00 0.00 0.00 0.00 0.00 0.00 0.00 0.00 0.00 0.00 0.00 0.00 0.00 0.00 0.00 0.00
0.01 0.02 0.02 0.01 0.00 0.00 0.00 0.01 0.01 0.02 0.02 0.02 0.02 0.01 0.01 0.00 0.00 0.00 0.00 0.01 0.01 0.01 0.01 0.02 0.02 0.01 0.01 0.01 0.01 0.00 0.00 0.00 0.00 0.00 0.00 0.00 0.00 0.00 0.00 0.00 0.00 0.00 0.00
0.02 0.01 0.01 0.01 0.01 0.00 0.00 0.01 0.01 0.01 0.01 0.02 0.02 0.01 0.01 0.00 0.00 0.01 0.01 0.01 0.01 0.02 0.02 0.02 0.02 0.01 0.00 0.00 0.00 0.00 0.00 0.00 0.00 0.00 0.00 0.00 0.00 0.00 0.00 0.00 0.00 0.00 0.00
0.02 0.01 0.01 0.00 0.01 0.01 0.01 0.01 0.00 0.00 0.00 0.00 0.01 0.00 0.00 0.00 0.00 0.00 0.01 0.01 0.01 0.01 0.02 0.02 0.02 0.02 0.00 0.00 0.00 0.00 0.00 0.00 0.00 0.00 0.00 0.00 0.00 0.00 0.00 0.00 0.00 0.00 0.00
0.02 0.01 0.01 0.01 0.01 0.01 0.01 0.01 0.00 0.00 0.00 0.00 0.00 0.00 0.00 0.00 0.00 0.01 0.01 0.01 0.01 0.01 0.01 0.01 0.01 0.01 0.00 0.00 0.00 0.00 0.00 0.00 0.00 0.00 0.00 0.00 0.00 0.00 0.00 0.00 0.00 0.00 0.00
0.03 0.02 0.01 0.01 0.00 0.00 0.00 0.00 0.00 0.00 0.00 0.00 0.00 0.00 0.00 0.00 0.00 0.01 0.01 0.01 0.01 0.01 0.01 0.01 0.01 0.01 0.01 0.00 0.00 0.00 0.00 0.00 0.00 0.00 0.00 0.00 0.00 0.00 0.00 0.00 0.00 0.00 0.00
0.06 0.05 0.03 0.02 0.01 0.00 0.00 0.00 0.01 0.00 0.00 0.00 0.00 0.00 0.00 0.00 0.00 0.00 0.01 0.01 0.01 0.01 0.01 0.01 0.01 0.01 0.00 0.00 0.00 0.00 0.00 0.00 0.00 0.00 0.00 0.00 0.00 0.00 0.00 0.00 0.00 0.00 0.00
MSLP
1015.87 1015.77 1015.66 1015.54 1015.46 1015.44 1015.49 1015.62 1015.81 1016.05 1016.29 1016.52 1016.73 1016.90 1017.04 1017.15 1017.24 1017.31 1017.34 1017.34 1017.29 1017.19 1017.06 1016.91 1016.78 1016.70 1016.71 1016.81 1017.01 1017.29 1017.62 1017.96 1018.28 1018.56 1018.78 1018.95 1019.08 1019.17 1019.25 1019.30 1019.34 1019.36 1019.34
1016.11 1016.00 1015.87 1015.77 1015.73 1015.77 1015.90 1016.13 1016.44 1016.79 1017.15 1017.48 1017.77 1018.00 1018.16 1018.25 1018.30 1018.29 1018.23 1018.13 1017.98 1017.81 1017.62 1017.43 1017.29 1017.21 1017.21 1017.31 1017.49 1017.74 1018.04 1018.35 1018.64 1018.89 1019.11 1019.28 1019.41 1019.52 1019.61 1019.68 1019.73 1019.76 1019.75
1016.42 1016.29 1016.18 1016.12 1016.13 1016.24 1016.46 1016.79 1017.20 1017.65 1018.11 1018.54 1018.90 1019.17 1019.35 1019.43 1019.43 1019.35 1019.20 1019.00 1018.77 1018.52 1018.28 1018.06 1017.90 1017.82 1017.82 1017.90 1018.07 1018.29 1018.54 1018.80 1019.05 1019.28 1019.47 1019.63 1019.77 1019.90 1020.01 1020.11 1020.18 1020.22 1020.23
1016.77 1016.65 1016.57 1016.54 1016.62 1016.80 1017.10 1017.50 1017.99 1018.52 1019.05 1019.55 1019.96 1020.28 1020.48 1020.57 1020.54 1020.41 1020.20 1019.93 1019.63 1019.33 1019.04 1018.80 1018.63 1018.54 1018.54 1018.61 1018.76 1018.94 1019.15 1019.36 1019.56 1019.73 1019.90 1020.04 1020.19 1020.33 1020.47 1020.59 1020.70 1020.77 1020.80
1017.16 1017.05 1016.99 1017.02 1017.14 1017.37 1017.72 1018.17 1018.70 1019.26 1019.84 1020.37 1020.83 1021.19 1021.43 1021.54 1021.53 1021.40 1021.17 1020.88 1020.56 1020.22 1019.92 1019.67 1019.49 1019.40 1019.40 1019.46 1019.58 1019.72 1019.88 1020.03 1020.17 1020.30 1020.42 1020.55 1020.68 1020.83 1020.99 1021.14 1021.27 1021.37 1021.43
1017.56 1017.46 1017.43 1017.49 1017.65 1017.91 1018.27 1018.72 1019.24 1019.80 1020.38 1020.93 1021.42 1021.83 1022.13 1022.30 1022.35 1022.27 1022.09 1021.83 1021.52 1021.20 1020.91 1020.67 1020.50 1020.42 1020.40 1020.45 1020.54 1020.64 1020.74 1020.84 1020.91 1020.98 1021.06 1021.15 1021.27 1021.41 1021.57 1021.74 1021.89 1022.01 1022.08
1017.98 1017.89 1017.89 1017.97 1018.13 1018.39 1018.72 1019.13 1019.60 1020.12 1020.66 1021.20 1021.72 1022.18 1022.56 1022.83 1022.99 1023.02 1022.93 1022.75 1022.52 1022.25 1022.00 1021.79 1021.64 1021.56 1021.54 1021.57 1021.63 1021.69 1021.74 1021.77 1021.78 1021.79 1021.81 1021.86 1021.94 1022.06 1022.21 1022.37 1022.53 1022.65 1022.74
1018.42 1018.35 1018.36 1018.44 1018.59 1018.81 1019.09 1019.42 1019.81 1020.25 1020.73 1021.25 1021.78 1022.30 1022.77 1023.16 1023.46 1023.63 1023.69 1023.64 1023.51 1023.33 1023.15 1022.98 1022.86 1022.79 1022.78 1022.79 1022.82 1022.84 1022.83 1022.80 1022.75 1022.70 1022.66 1022.65 1022.68 1022.76 1022.88 1023.02 1023.16 1023.28 1023.36
1018.91 1018.85 1018.86 1018.93 1019.06 1019.22 1019.42 1019.65 1019.94 1020.28 1020.69 1021.17 1021.70 1022.27 1022.83 1023.36 1023.81 1024.14 1024.36 1024.46 1024.46 1024.39 1024.28 1024.17 1024.09 1024.04 1024.02 1024.02 1024.02 1024.01 1023.96 1023.88 1023.78 1023.67 1023.57 1023.50 1023.48 1023.51 1023.59 1023.69 1023.80 1023.89 1023.96
1019.45 1019.40 1019.41 1019.47 1019.56 1019.67 1019.78 1019.92 1020.10 1020.34 1020.67 1021.09 1021.62 1022.21 1022.85 1023.48 1024.07 1024.55 1024.92 1025.17 1025.29 1025.33 1025.31 1025.26 1025.22 1025.19 1025.18 1025.18 1025.16 1025.13 1025.05 1024.94 1024.80 1024.64 1024.50 1024.39 1024.32 1024.30 1024.32 1024.38 1024.45 1024.51 1024.54
1020.01 1019.99 1020.01 1020.06 1020.12 1020.18 1020.23 1020.28 1020.36 1020.51 1020.76 1021.12 1021.62 1022.22 1022.90 1023.60 1024.28 1024.88 1025.36 1025.72 1025.95 1026.09 1026.14 1026.16 1026.16 1026.16 1026.16 1026.17 1026.15 1026.11 1026.03 1025.90 1025.74 1025.57 1025.40 1025.26 1025.16 1025.10 1025.09 1025.10 1025.12 1025.14 1025.14
1020.59 1020.59 1020.63 1020.69 1020.74 1020.76 1020.77 1020.76 1020.78 1020.85 1021.03 1021.33 1021.78 1022.35 1023.02 1023.74 1024.46 1025.11 1025.67 1026.10 1026.41 1026.61 1026.73 1026.80 1026.84 1026.87 1026.90 1026.93 1026.93 1026.90 1026.82 1026.71 1026.56 1026.40 1026.24 1026.09 1025.98 1025.91 1025.87 1025.85 1025.84 1025.82 1025.78
1021.13 1021.17 1021.24 1021.31 1021.37 1021.40 1021.39 1021.36 1021.34 1021.37 1021.49 1021.73 1022.12 1022.63 1023.26 1023.94 1024.64 1025.28 1025.85 1026.31 1026.65 1026.89 1027.06 1027.17 1027.26 1027.33 1027.39 1027.44 1027.47 1027.47 1027.43 1027.35 1027.23 1027.10 1026.97 1026.85 1026.76 1026.70 1026.66 1026.63 1026.60 1026.55 1026.47
1021.61 1021.68 1021.79 1021.90 1021.99 1022.05 1022.07 1022.05 1022.03 1022.04 1022.12 1022.31 1022.62 1023.06 1023.60 1024.20 1024.82 1025.42 1025.94 1026.38 1026.73 1026.99 1027.18 1027.33 1027.45 1027.56 1027.66 1027.75 1027.81 1027.85 1027.84 1027.80 1027.74 1027.66 1027.58 1027.51 1027.46 1027.43 1027.41 1027.39 1027.36 1027.29 1027.19
1022.00 1022.11 1022.25 1022.41 1022.55 1022.67 1022.74 1022.76 1022.77 1022.79 1022.86 1023.01 1023.26 1023.60 1024.04 1024.53 1025.05 1025.55 1026.00 1026.39 1026.71 1026.97 1027.18 1027.36 1027.51 1027.66 1027.80 1027.92 1028.01 1028.08 1028.11 1028.12 1028.10 1028.07 1028.05 1028.04 1028.05 1028.07 1028.09 1028.09 1028.06 1028.00 1027.88
1022.29 1022.43 1022.62 1022.83 1023.03 1023.22 1023.36 1023.45 1023.52 1023.57 1023.65 1023.77 1023.96 1024.22 1024.55 1024.93 1025.33 1025.72 1026.09 1026.42 1026.70 1026.95 1027.16 1027.36 1027.55 1027.72 1027.88 1028.03 1028.15 1028.23 1028.29 1028.32 1028.34 1028.36 1028.39 1028.43 1028.49 1028.56 1028.62 1028.66 1028.65 1028.59 1028.48
1022.51 1022.68 1022.90 1023.16 1023.43 1023.68 1023.90 1024.07 1024.20 1024.30 1024.40 1024.52 1024.67 1024.87 1025.10 1025.38 1025.67 1025.97 1026.26 1026.53 1026.77 1027.00 1027.22 1027.43 1027.64 1027.83 1028.01 1028.17 1028.29 1028.38 1028.44 1028.48 1028.51 1028.55 1028.60 1028.67 1028.77 1028.87 1028.96 1029.03 1029.04 1029.01 1028.90
1022.68 1022.88 1023.13 1023.43 1023.75 1024.06 1024.34 1024.58 1024.78 1024.94 1025.07 1025.19 1025.32 1025.48 1025.65 1025.85 1026.06 1026.28 1026.51 1026.73 1026.95 1027.18 1027.40 1027.62 1027.84 1028.04 1028.23 1028.38 1028.49 1028.56 1028.60 1028.63 1028.64 1028.67 1028.72 1028.79 1028.89 1029.00 1029.11 1029.18 1029.22 1029.19 1029.11
1022.85 1023.06 1023.34 1023.66 1024.01 1024.36 1024.69 1024.98 1025.23 1025.43 1025.59 1025.73 1025.86 1026.00 1026.14 1026.29 1026.46 1026.63 1026.82 1027.02 1027.23 1027.45 1027.68 1027.91 1028.13 1028.34 1028.51 1028.65 1028.74 1028.79 1028.80 1028.78 1028.77 1028.76 1028.78 1028.82 1028.90 1028.99 1029.08 1029.14 1029.18 1029.16 1029.09
1023.03 1023.26 1023.54 1023.88 1024.24 1024.60 1024.95 1025.26 1025.53 1025.75 1025.94 1026.10 1026.24 1026.37 1026.50 1026.64 1026.79 1026.95 1027.13 1027.32 1027.53 1027.75 1027.99 1028.23 1028.45 1028.66 1028.83 1028.95 1029.02 1029.03 1029.01 1028.96 1028.90 1028.85 1028.81 1028.81 1028.83 1028.88 1028.92 1028.96 1028.97 1028.94 1028.87
1023.21 1023.45 1023.74 1024.07 1024.42 1024.76 1025.10 1025.40 1025.66 1025.89 1026.09 1026.26 1026.41 1026.56 1026.70 1026.85 1027.01 1027.17 1027.35 1027.55 1027.77 1028.00 1028.24 1028.49 1028.72 1028.93 1029.09 1029.20 1029.26 1029.26 1029.21 1029.14 1029.04 1028.95 1028.86 1028.80 1028.76 1028.74 1028.73 1028.71 1028.68 1028.62 1028.55
1023.35 1023.61 1023.90 1024.21 1024.53 1024.84 1025.13 1025.39 1025.63 1025.84 1026.03 1026.21 1026.37 1026.54 1026.70 1026.87 1027.05 1027.23 1027.43 1027.64 1027.87 1028.11 1028.36 1028.61 1028.85 1029.06 1029.23 1029.35 1029.41 1029.42 1029.38 1029.29 1029.18 1029.07 1028.95 1028.84 1028.74 1028.65 1028.57 1028.49 1028.39 1028.30 1028.19
1023.41 1023.69 1023.97 1024.26 1024.53 1024.79 1025.02 1025.24 1025.43 1025.61 1025.78 1025.95 1026.13 1026.31 1026.50 1026.69 1026.90 1027.11 1027.32 1027.55 1027.79 1028.04 1028.29 1028.55 1028.79 1029.01 1029.20 1029.34 1029.43 1029.47 1029.45 1029.40 1029.30 1029.19 1029.06 1028.93 1028.79 1028.65 1028.50 1028.35 1028.19 1028.04 1027.89
1023.32 1023.62 1023.90 1024.16 1024.39 1024.59 1024.76 1024.92 1025.06 1025.20 1025.35 1025.52 1025.70 1025.90 1026.12 1026.34 1026.57 1026.80 1027.03 1027.27 1027.51 1027.77 1028.02 1028.28 1028.54 1028.78 1028.99 1029.16 1029.30 1029.38 1029.42 1029.42 1029.37 1029.29 1029.18 1029.05 1028.90 1028.73 1028.54 1028.33 1028.11 1027.90 1027.69
1023.05 1023.36 1023.64 1023.88 1024.07 1024.22 1024.34 1024.44 1024.54 1024.66 1024.79 1024.95 1025.15 1025.36 1025.60 1025.84 1026.09 1026.34 1026.59 1026.84 1027.09 1027.34 1027.60 1027.87 1028.13 1028.39 1028.62 1028.84 1029.02 1029.16 1029.26 1029.32 1029.34 1029.32 1029.26 1029.16 1029.02 1028.85 1028.64 1028.40 1028.14 1027.87 1027.60
1022.59 1022.91 1023.18 1023.39 1023.55 1023.67 1023.75 1023.82 1023.90 1024.00 1024.13 1024.30 1024.51 1024.74 1025.00 1025.26 1025.53 1025.80 1026.06 1026.31 1026.57 1026.83 1027.09 1027.36 1027.63 1027.91 1028.17 1028.41 1028.63 1028.83 1028.99 1029.11 1029.19 1029.23 1029.23 1029.18 1029.09 1028.94 1028.73 1028.49 1028.21 1027.90 1027.59
Thickness
5743 5742 5742 5740 5740 5739 5739 5738 5737 5736 5735 5734 5732 5731 5729 5727 5725 5723 5722 5722 5722 5723 5724 5724 5724 5725 5725 5725 5726 5726 5726 5726 5726 5726 5726 5727 5728 5729 5729 5729 5729 5729 5730
5741 5740 5739 5738 5737 5737 5737 5736 5734 5732 5730 5729 5727 5726 5725 5724 5723 5721 5719 5719 5719 5719 5720 5720 5720 5720 5721 5721 5721 5721 5721 5721 5721 5721 5722 5723 5725 5725 5725 5724 5724 5725 5725
5739 5738 5737 5736 5735 5735 5735 5733 5731 5729 5727 5725 5723 5722 5720 5720 5720 5719 5717 5716 5715 5714 5715 5715 5715 5716 5716 5716 5716 5716 5716 5716 5716 5717 5717 5718 5720 5720 5720 5719 5719 5720 5720
5737 5735 5734 5733 5733 5732 5731 5729 5727 5724 5722 5720 5718 5717 5716 5716 5716 5716 5715 5713 5712 5711 5710 5710 5710 5710 5711 5711 5711 5711 5711 5711 5712 5712 5712 5713 5713 5713 5714 5714 5715 5715 5716
5733 5732 5731 5731 5730 5729 5728 5727 5723 5721 5718 5715 5714 5713 5712 5712 5711 5711 5710 5709 5708 5707 5705 5705 5704 5704 5705 5705 5705 5706 5705 5706 5706 5706 5707 5707 5708 5708 5709 5709 5710 5710 5711
5730 5729 5728 5727 5727 5725 5723 5722 5720 5719 5716 5714 5713 5710 5709 5708 5707 5706 5706 5705 5704 5702 5701 5700 5699 5699 5699 5699 5700 5700 5700 5700 5701 5701 5701 5701 5703 5703 5704 5705 5706 5706 5706
5726 5726 5725 5724 5723 5721 5719 5719 5717 5714 5712 5712 5708 5703 5703 5704 5703 5702 5702 5700 5699 5698 5697 5696 5695 5694 5694 5694 5694 5694 5694 5695 5695 5695 5695 5696 5696 5697 5698 5699 5701 5702 5701
5723 5723 5722 5720 5719 5718 5716 5715 5714 5710 5710 5711 5706 5699 5693 5693 5696 5698 5697 5696 5695 5693 5692 5691 5691 5690 5689 5689 5688 5688 5688 5689 5689 5690 5690 5690 5690 5691 5692 5693 5695 5696 5695
5720 5720 5719 5718 5717 5715 5713 5712 5711 5709 5705 5707 5708 5702 5693 5687 5688 5690 5692 5691 5690 5689 5688 5687 5686 5686 5684 5683 5682 5682 5682 5682 5683 5684 5684 5684 5684 5685 5685 5686 5688 5688 5687
5718 5717 5717 5716 5715 5713 5711 5711 5710 5709 5705 5702 5704 5706 5703 5697 5688 5681 5684 5687 5687 5685 5683 5683 5681 5680 5679 5678 5676 5676 5676 5676 5676 5677 5677 5677 5678 5678 5679 5679 5679 5680 5679
5715 5715 5714 5714 5712 5710 5709 5708 5707 5706 5704 5702 5700 5700 5699 5697 5694 5685 5677 5679 5680 5680 5679 5678 5677 5675 5674 5673 5672 5671 5670 5670 5670 5670 5670 5670 5670 5671 5671 5672 5672 5672 5671
5713 5712 5712 5711 5709 5708 5706 5705 5704 5703 5702 5701 5699 5697 5694 5691 5687 5685 5679 5676 5674 5674 5676 5674 5673 5671 5670 5668 5667 5666 5665 5664 5664 5664 5664 5663 5663 5663 5664 5664 5664 5664 5663
5708 5709 5709 5707 5706 5705 5703 5702 5701 5700 5699 5697 5696 5694 5693 5690 5689 5685 5680 5676 5673 5671 5671 5670 5669 5667 5665 5664 5662 5661 5660 5659 5658 5658 5657 5657 5656 5655 5656 5655 5655 5655 5655
5708 5707 5706 5704 5703 5702 5700 5699 5697 5697 5696 5694 5693 5691 5689 5688 5687 5684 5680 5675 5669 5667 5666 5664 5665 5664 5662 5660 5659 5657 5656 5654 5653 5652 5651 5650 5649 5648 5648 5647 5647 5647 5646
5707 5705 5703 5701 5699 5698 5697 5696 5694 5692 5692 5690 5689 5688 5686 5685 5684 5683 5681 5677 5670 5662 5659 5661 5660 5661 5659 5657 5655 5653 5652 5650 5648 5647 5645 5644 5643 5642 5641 5640 5639 5638 5637
5704 5702 5700 5698 5696 5695 5694 5692 5690 5689 5687 5686 5685 5683 5682 5681 5680 5679 5678 5676 5672 5666 5658 5658 5658 5658 5656 5654 5651 5649 5648 5646 5644 5642 5640 5639 5637 5636 5634 5632 5631 5630 5629
5701 5699 5697 5695 5693 5691 5690 5688 5686 5685 5683 5682 5681 5679 5677 5677 5675 5674 5673 5671 5668 5665 5657 5655 5655 5654 5652 5649 5647 5645 5643 5641 5639 5637 5635 5633 5631 5629 5627 5626 5624 5622 5621
5699 5697 5695 5693 5690 5689 5687 5685 5683 5681 5679 5678 5677 5675 5673 5673 5670 5669 5667 5665 5663 5661 5656 5650 5649 5648 5647 5645 5643 5641 5639 5636 5634 5632 5630 5628 5626 5624 5622 5619 5617 5615 5613
5695 5694 5691 5689 5687 5685 5684 5682 5680 5678 5676 5675 5673 5671 5669 5667 5665 5664 5662 5660 5658 5657 5653 5648 5644 5643 5642 5640 5637 5635 5634 5631 5629 5627 5625 5622 5620 5617 5615 5613 5610 5607 5605
5692 5689 5687 5685 5683 5682 5680 5678 5677 5675 5672 5670 5669 5667 5665 5662 5660 5659 5657 5655 5653 5650 5647 5643 5639 5637 5635 5634 5631 5628 5625 5625 5623 5622 5619 5616 5613 5610 5608 5605 5602 5599 5596
5688 5686 5683 5681 5679 5677 5675 5673 5672 5670 5668 5666 5664 5662 5660 5658 5656 5654 5652 5649 5647 5644 5640 5637 5633 5630 5628 5625 5623 5622 5619 5617 5616 5615 5612 5610 5607 5603 5600 5597 5594 5591 5588
5683 5680 5678 5675 5673 5672 5670 5669 5667 5665 5664 5661 5658 5656 5655 5652 5650 5648 5647 5644 5642 5638 5634 5631 5627 5624 5622 5620 5619 5617 5612 5609 5606 5608 5605 5602 5601 5597 5594 5590 5586 5582 5579
5676 5674 5673 5670 5667 5666 5665 5664 5662 5660 5658 5656 5654 5652 5650 5648 5645 5642 5640 5638 5636 5634 5631 5627 5623 5620 5617 5616 5614 5610 5607 5603 5599 5600 5597 5593 5592 5588 5586 5582 5578 5574 5570
5671 5669 5667 5665 5662 5661 5660 5659 5657 5655 5653 5651 5649 5647 5644 5641 5639 5636 5634 5631 5629 5627 5625 5623 5620 5617 5615 5612 5609 5605 5601 5598 5595 5592 5589 5583 5582 5579 5577 5573 5569 5564 5560
5666 5665 5662 5660 5657 5655 5655 5654 5652 5649 5647 5646 5644 5641 5639 5635 5633 5631 5628 5625 5622 5620 5619 5617 5614 5611 5608 5605 5602 5597 5592 5587 5583 5582 5580 5574 5572 5570 5567 5564 5560 5555 5550
5662 5660 5658 5656 5654 5651 5650 5648 5646 5644 5641 5640 5637 5635 5632 5630 5628 5625 5622 5619 5615 5613 5612 5609 5606 5604 5601 5597 5594 5589 5585 5579 5574 5571 5570 5565 5561 5557 5554 5554 5549 5545 5540